Regional Weather Roundup
Issued by NWS Little Rock, AR

Home | Current Version | Previous Version | Graphics & Text | Print | Product List | Glossary On
Versions: 1 2 3 4 5 6 7 8 9 10 11 12 13 14 15 16 17 18 19 20 21 22 23 24 25 26 27 28 29 30 31 32 33 34 35 36 37 38 39 40 41 42 43 44 45 46 47 48 49 50
000
ASUS44 KLZK 281205
RWRLZK

WEATHER ROUNDUP FOR ARKANSAS
NATIONAL WEATHER SERVICE LITTLE ROCK AR
600 AM CST WED JAN 28 2015

NOTE: "FAIR" INDICATES FEW OR NO CLOUDS BELOW 12,000 FEET WITH NO
SIGNIFICANT WEATHER AND/OR OBSTRUCTIONS TO VISIBILITY.

ARZ001-003-010-029-281300-
NORTHWEST ARKANSAS

CITY           SKY/WX    TMP DP  RH WIND       PRES   REMARKS
FAYETTEVILLE   CLEAR     49  35  58 SW10      30.09R
6HR MIN TEMP:  31; 6HR MAX TEMP:  50;

FORT SMITH     CLEAR     42  35  76 E9        30.13S
6HR MIN TEMP:  42; 6HR MAX TEMP:  46;

HARRISON       CLEAR     38  33  82 SE14      30.12F
6HR MIN TEMP:  37; 6HR MAX TEMP:  44;

BENTONVILLE    CLEAR     41  28  60 SE6       30.08R
6HR MIN TEMP:  39; 6HR MAX TEMP:  46;

ROGERS         CLEAR     41  32  70 SE6       30.08S
6HR MIN TEMP:  41; 6HR MAX TEMP:  46;

SILOAM SPGS    CLEAR     46  30  53 S7        30.08S
6HR MIN TEMP:  45; 6HR MAX TEMP:  48;

HIGHFILL       CLEAR     36  29  75 S3        30.06S
6HR MIN TEMP:  36; 6HR MAX TEMP:  45;

$$

ARZ004-005-016-281300-
NORTH CENTRAL ARKANSAS

CITY           SKY/WX    TMP DP  RH WIND       PRES   REMARKS
BATESVILLE     CLEAR     34  28  80 CALM      30.23S
6HR MIN TEMP:  34; 6HR MAX TEMP:  43;

FLIPPIN        CLEAR     36  28  75 E5        30.18R
6HR MIN TEMP:  36; 6HR MAX TEMP:  43;

MTN HOME       CLEAR     35  33  92 SE7       30.17S WCI  29
6HR MIN TEMP:  35; 6HR MAX TEMP:  42;

$$

ARZ040-041-281300-
WEST CENTRAL ARKANSAS

CITY           SKY/WX    TMP DP  RH WIND       PRES   REMARKS
MENA           CLEAR     36  34  93 CALM      30.16S
MOUNT IDA      CLEAR     33  30  88 CALM      30.14S
6HR MIN TEMP:  33; 6HR MAX TEMP:  40;

$$

ARZ009-017-025-026-028-281300-
NORTHEAST ARKANSAS

CITY           SKY/WX    TMP DP  RH WIND       PRES   REMARKS
CORNING        FAIR      32  28  86 E7        30.27S WCI  26
JONESBORO      CLEAR     31  30  96 E7        30.27R WCI  24
6HR MIN TEMP:  31; 6HR MAX TEMP:  36;

NEWPORT        CLEAR     32  31  96 E6        30.26R WCI  26
6HR MIN TEMP:  31; 6HR MAX TEMP:  38;

WALNUT RIDGE   CLEAR     32  27  80 E6        30.26R WCI  26
6HR MIN TEMP:  32; 6HR MAX TEMP:  37;

BLYTHEVILLE    CLEAR     32  28  85 SE5       30.29R WCI  27
6HR MIN TEMP:  29; 6HR MAX TEMP:  34;

$$

ARZ022-023-033-042-044-281300-
CENTRAL ARKANSAS

CITY           SKY/WX    TMP DP  RH WIND       PRES   REMARKS
LITTLE ROCK    CLEAR     37  34  89 NE5       30.23R
6HR MIN TEMP:  37; 6HR MAX TEMP:  43; 6HR PCP: TRACE;

N LITTLE ROCK    N/A     39  37  92 E7        30.23R
6HR MIN TEMP:  38; 6HR MAX TEMP:  45;

JACKSONVILLE   CLEAR     31  29  92 CALM      30.22R
6HR MIN TEMP:  31; 6HR MAX TEMP:  39;

SEARCY         CLEAR     35  33  92 NE3       30.25R
6HR MIN TEMP:  34; 6HR MAX TEMP:  41;

HOT SPRINGS    CLEAR     41  35  79 E8        30.20R
6HR MIN TEMP:  40; 6HR MAX TEMP:  48;

RUSSELLVILLE   CLEAR     43  35  73 E8        30.19R
6HR MIN TEMP:  43; 6HR MAX TEMP:  50;

CLINTON        FAIR      28  28 100 CALM      30.25R
$$

ARZ036-281300-
EAST ARKANSAS

CITY           SKY/WX    TMP DP  RH WIND       PRES   REMARKS
WEST MEMPHIS   CLEAR     35  30  82 SE8       30.26R WCI  29
6HR MIN TEMP:  32; 6HR MAX TEMP:  38;

$$

ARZ050-053-066-070-073-281300-
SOUTHWEST ARKANSAS

CITY           SKY/WX    TMP DP  RH WIND       PRES   REMARKS
ARKADELPHIA    FAIR      39  37  92 NE3       30.22R
6HR MIN TEMP:  36; 6HR MAX TEMP:  42;

CAMDEN         CLEAR     32  32 100 CALM      30.20R
TEXARKANA      CLEAR     41  37  86 E3        30.15R
6HR MIN TEMP:  41; 6HR MAX TEMP:  53;

EL DORADO      CLEAR     38  34  85 E3        30.19R
6HR MIN TEMP:  38; 6HR MAX TEMP:  46;

DE QUEEN       CLEAR     43  36  76 E7        30.14R
6HR MIN TEMP:  35; 6HR MAX TEMP:  43;

$$

ARZ056-057-069-281300-
SOUTHEAST ARKANSAS

CITY           SKY/WX    TMP DP  RH WIND       PRES   REMARKS
PINE BLUFF     CLEAR     35  33  92 E6        30.22R WCI  30
6HR MIN TEMP:  35; 6HR MAX TEMP:  42;

STUTTGART      CLEAR     37  30  75 E6        30.23S
6HR MIN TEMP:  37; 6HR MAX TEMP:  45;

MONTICELLO     CLEAR     38  34  85 E5        30.21S
6HR MIN TEMP:  36; 6HR MAX TEMP:  45;


$$




USA.gov is the U.S. government's official web portal to all federal, state and local government web resources and services.